[[{"header":{"parameterUnit":"m.s-1","parameterCategory":1,"la1":30.2991,"la2":30.254,"lo1":-89.0895,"lo2":-89.0444,"dy":0.0017,"dx":0.0017,"nx":28,"ny":28,"refTime":"2025-07-30T03:00:00:Z","depth":0,"parameterNumber":2,"parameterNumberName":"U-component_of_WINDS"},"data":[0,0,0,0,0,0,0,0,0,0,0,0,0,0,0,0,0,0,0,0,0,0,0,0,0,0,0,0,0,0,0,0,0,0,0,0,0,0,0,0,0,0,0,0,0,0,0,0,0,0,0,0,0,0,0,0,0,0,3.5879,3.588,0,3.6028,3.6029,3.6031,3.5994,3.5991,3.5988,3.5985,3.6139,3.6146,3.6153,0,0,0,0,0,0,0,0,0,0,0,0,0,3.5562,3.5568,3.5879,3.5881,3.5882,3.6027,3.6029,3.6031,3.5995,3.5991,3.5987,3.5984,3.6137,3.6145,3.6153,0,0,0,0,0,0,0,0,0,0,0,0,0,3.5704,3.557,3.5878,3.5881,3.5883,3.6027,3.6029,3.6032,3.5995,3.5991,3.5987,3.5982,3.6135,3.6144,3.6155,3.6305,0,0,3.6186,3.619,0,0,0,0,0,0,0,0,3.5696,3.5716,3.5879,3.5881,3.5884,3.5988,3.5974,3.6124,3.5996,3.5953,3.5985,3.598,3.6093,3.6106,3.6144,3.6312,3.6319,3.6187,3.6193,3.6197,3.62,0,0,0,0,0,0,0,3.5686,3.5709,3.5938,3.5882,3.5884,3.5875,3.5891,3.6002,3.6045,3.5956,3.5954,3.5972,3.6093,3.6134,3.6147,3.6321,3.6186,3.6195,3.6202,3.6206,3.6618,3.6622,0,0,0,0,0,0,3.5675,3.5701,3.5933,3.5942,3.5777,3.5884,3.5902,3.5959,3.6044,3.6053,3.5976,3.597,3.6118,3.6135,3.6152,3.6332,3.6197,3.6207,3.6213,3.6613,3.6619,3.6624,0,0,0,0,0,0,3.5668,3.5696,3.5927,3.5821,3.585,3.5895,3.5959,3.5964,3.6005,3.6059,3.6066,3.6009,3.6116,3.6138,3.6266,3.6337,3.6211,3.6221,3.6607,3.6615,3.6621,3.6693,0,0,0,0,0,0,3.5659,3.5693,3.5751,3.5823,3.5856,3.6039,3.5963,3.597,3.6022,3.6016,3.6092,3.6101,3.6114,3.6251,3.6277,3.6348,3.6229,3.6601,3.661,3.6619,3.6685,3.6702,3.6717,0,0,0,0,0,3.5648,3.5767,3.5754,3.5783,3.5929,3.6043,3.6062,3.6074,3.6028,3.6086,3.612,3.6098,3.6325,3.6265,3.6293,3.6369,3.6597,3.6608,3.6618,3.6678,3.6699,3.6716,0,0,0,0,0,0,3.5703,3.5776,3.5763,3.5909,3.597,3.6037,3.611,3.6097,3.6173,3.6164,3.6176,3.6194,3.6325,3.636,3.6292,3.6518,3.6454,3.6471,3.649,3.651,3.6526,3.6514,3.6237,0,0,0,0,0,3.5732,3.5819,3.5878,3.6,3.6031,3.6066,3.6116,3.612,3.6184,3.621,3.6254,3.6317,3.6402,3.6458,3.654,3.669,3.6705,3.6756,3.6772,3.6785,3.6799,3.6878,3.6901,3.6659,3.6659,3.6659,0,0,3.5793,3.5844,3.5898,3.6013,3.606,3.6149,3.6088,3.6185,3.6251,3.6225,3.6348,3.6383,3.6454,3.6593,3.6657,3.6627,3.6869,3.6799,3.6808,3.6816,3.6892,3.6915,3.6935,3.6667,3.6665,3.6664,0,0,3.5949,3.5997,3.6103,3.6151,3.6224,3.6246,3.6271,3.634,3.6362,3.6486,3.6467,3.6546,3.6693,3.6744,3.6789,3.6962,3.6944,3.6989,3.7072,3.715,3.7169,3.7185,3.7245,3.7267,3.7003,3.7003,3.7003,0,3.6016,3.6149,3.6159,3.6257,3.6308,3.6287,3.6394,3.6441,3.6537,3.6572,3.6537,3.672,3.6767,3.6916,3.6958,3.6996,3.7025,3.698,3.7165,3.7182,3.7198,3.7255,3.7278,3.7008,3.7008,3.7007,3.7007,0,3.6226,3.6318,3.6395,3.6487,3.6546,3.6648,3.6674,3.6732,3.6731,3.6756,3.6882,3.6937,3.7028,3.7065,3.7065,3.7214,3.7193,3.7161,3.7098,3.7225,3.7279,3.7301,3.7015,3.7013,3.7012,3.7011,0,0,3.6421,3.6516,3.6544,3.6584,3.6662,3.6734,3.6835,3.6923,3.6972,3.7039,3.7123,3.7247,3.7218,3.7269,3.7275,3.7343,3.7474,3.7303,3.7305,3.7331,3.7639,3.7661,3.7686,3.7463,3.7467,3.747,3.7632,0,3.6582,3.6759,3.677,3.693,3.7014,3.6996,3.7083,3.714,3.7166,3.7242,3.7271,3.7358,3.7313,3.7344,3.7411,3.7444,3.7536,3.7433,3.754,3.7544,3.7521,3.7715,3.7739,3.7889,3.7654,3.7657,3.766,0,3.6794,3.6865,3.7033,3.7097,3.7133,3.7211,3.7292,3.7365,3.7429,3.7443,3.7499,3.7495,3.7597,3.7531,3.7672,3.7601,3.7646,3.7669,3.7675,3.7684,3.7608,3.7727,3.7937,3.7959,3.7694,3.7691,3.7689,0,3.6917,3.7055,3.7173,3.7208,3.7287,3.7342,3.7377,3.7436,3.7488,3.7559,3.7592,3.7675,3.772,3.7783,3.7801,3.7751,3.7941,3.7876,3.7954,3.7954,3.7994,3.7991,3.8212,3.8026,3.8026,3.8025,3.8025,0,3.7095,3.7197,3.7228,3.7301,3.7415,3.7427,3.754,3.7571,3.7624,3.7702,3.7692,3.7765,3.7785,3.7861,3.7876,3.7989,3.801,3.8024,3.8026,3.8024,3.8022,3.8052,3.8041,3.8031,3.803,3.8029,3.8028,0,3.7251,3.7276,3.7402,3.7465,3.7484,3.7565,3.7618,3.7688,3.7712,3.781,3.7834,3.7872,3.7961,3.7985,3.8093,3.8103,3.8235,3.8229,3.8213,3.8213,3.8289,3.828,3.8536,3.8569,3.8363,3.8365,3.8366,0,3.7362,3.744,3.7511,3.7561,3.7599,3.7681,3.7733,3.7748,3.7803,3.788,3.794,3.8027,3.8098,3.8242,3.8279,3.8361,3.8355,3.8439,3.8368,3.8362,3.8354,3.8348,3.8355,3.8452,3.8454,3.8456,3.8458,0,3.7555,3.7563,3.7638,3.7718,3.778,3.7844,3.7904,3.7947,3.797,3.8032,3.8122,3.8177,3.8286,3.8373,3.8455,3.8491,3.8478,3.848,3.8502,3.8499,3.8486,3.8492,3.8248,3.8474,3.8472,3.8471,3.847,3.8469,3.7691,3.7758,3.7818,3.7902,3.7949,3.8005,3.8072,3.8104,3.818,3.8269,3.8273,3.8371,3.8432,3.854,3.8581,3.8657,3.8632,3.8665,3.8673,3.868,3.8685,3.8475,3.8673,3.8673,3.8672,3.8672,3.8671,0,3.7882,3.7919,3.7996,3.808,3.8146,3.8127,3.8193,3.8249,3.8335,3.8392,3.8461,3.8565,3.8648,3.8692,3.8775,3.8828,3.8824,3.8849,3.8844,3.8852,3.8704,3.8676,3.885,3.885,3.885,3.885,3.885,3.885,3.7989,3.8101,3.8116,3.8252,3.8288,3.8383,3.8422,3.8474,3.8519,3.8635,3.8704,3.8731,3.8782,3.8869,3.8944,3.8955,3.8985,3.9013,3.9021,3.8881,3.8863,3.8845,3.8819,3.902,3.902,3.9162,3.9163,3.9164]},{"header":{"parameterUnit":"m.s-1","parameterCategory":1,"la1":30.2991,"la2":30.254,"lo1":-89.0895,"lo2":-89.0444,"dy":0.0017,"dx":0.0017,"nx":28,"ny":28,"refTime":"2025-07-30T03:00:00:Z","depth":0,"parameterNumber":3,"parameterNumberName":"V-component_of_WINDS"},"data":[0,0,0,0,0,0,0,0,0,0,0,0,0,0,0,0,0,0,0,0,0,0,0,0,0,0,0,0,0,0,0,0,0,0,0,0,0,0,0,0,0,0,0,0,0,0,0,0,0,0,0,0,0,0,0,0,0,0,2.4272,2.4273,0,2.4343,2.4344,2.4345,2.4326,2.4325,2.4323,2.4322,2.4395,2.4398,2.4401,0,0,0,0,0,0,0,0,0,0,0,0,0,2.4118,2.4121,2.4272,2.4273,2.4274,2.4343,2.4344,2.4345,2.4326,2.4325,2.4323,2.4321,2.4394,2.4397,2.4401,0,0,0,0,0,0,0,0,0,0,0,0,0,2.4187,2.4122,2.4272,2.4273,2.4274,2.4343,2.4344,2.4345,2.4327,2.4325,2.4323,2.4321,2.4392,2.4397,2.4402,2.4474,0,0,2.4417,2.4419,0,0,0,0,0,0,0,0,2.4183,2.4192,2.4272,2.4273,2.4274,2.4324,2.4316,2.4388,2.4327,2.4307,2.4322,2.432,2.4373,2.4379,2.4397,2.4478,2.4481,2.4417,2.442,2.4422,2.4424,0,0,0,0,0,0,0,2.4178,2.4189,2.43,2.4273,2.4274,2.4269,2.4277,2.433,2.4351,2.4308,2.4307,2.4316,2.4373,2.4392,2.4399,2.4482,2.4417,2.4421,2.4424,2.4426,2.4624,2.4626,0,0,0,0,0,0,2.4173,2.4185,2.4298,2.4302,2.4222,2.4274,2.4282,2.431,2.435,2.4354,2.4318,2.4315,2.4385,2.4393,2.4401,2.4488,2.4422,2.4427,2.4429,2.4621,2.4624,2.4627,0,0,0,0,0,0,2.417,2.4183,2.4295,2.4244,2.4257,2.4279,2.431,2.4312,2.4332,2.4357,2.436,2.4334,2.4384,2.4394,2.4456,2.449,2.4429,2.4433,2.4619,2.4622,2.4625,2.4662,0,0,0,0,0,0,2.4165,2.4182,2.421,2.4244,2.426,2.4349,2.4312,2.4315,2.434,2.4337,2.4373,2.4377,2.4383,2.4449,2.4461,2.4496,2.4437,2.4616,2.462,2.4624,2.4658,2.4666,2.4673,0,0,0,0,0,2.416,2.4218,2.4212,2.4225,2.4296,2.4351,2.436,2.4366,2.4343,2.4371,2.4387,2.4376,2.4484,2.4455,2.4469,2.4505,2.4614,2.4619,2.4624,2.4654,2.4665,2.4673,0,0,0,0,0,0,2.4187,2.4222,2.4216,2.4287,2.4316,2.4348,2.4384,2.4377,2.4413,2.4409,2.4414,2.4422,2.4485,2.4501,2.4468,2.4577,2.4545,2.4554,2.4564,2.4574,2.4582,2.4576,2.4441,0,0,0,0,0,2.4202,2.4244,2.4272,2.4332,2.4347,2.4363,2.4387,2.4389,2.4419,2.4431,2.4452,2.4482,2.4522,2.4549,2.4588,2.466,2.4667,2.4692,2.4699,2.4706,2.4713,2.4751,2.4762,2.4644,2.4644,2.4644,0,0,2.4232,2.4256,2.4282,2.4338,2.4361,2.4404,2.4373,2.4421,2.4452,2.4439,2.4498,2.4514,2.4547,2.4614,2.4645,2.463,2.4747,2.4712,2.4717,2.4721,2.4757,2.4769,2.4779,2.4647,2.4647,2.4646,0,0,2.4308,2.4331,2.4383,2.4406,2.4441,2.4451,2.4464,2.4496,2.4506,2.4566,2.4556,2.4594,2.4664,2.4688,2.4709,2.4793,2.4784,2.4805,2.4847,2.4884,2.4893,2.4901,2.4931,2.4941,2.4812,2.4812,2.4812,0,2.4341,2.4406,2.4411,2.4458,2.4483,2.4472,2.4524,2.4546,2.4592,2.4609,2.4591,2.4678,2.47,2.4771,2.4792,2.481,2.4823,2.4802,2.4891,2.49,2.4907,2.4935,2.4947,2.4815,2.4815,2.4814,2.4814,0,2.4445,2.449,2.4527,2.4571,2.46,2.4649,2.466,2.4689,2.4687,2.4699,2.4759,2.4784,2.4828,2.4845,2.4844,2.4916,2.4906,2.489,2.4859,2.4921,2.4947,2.4958,2.4818,2.4817,2.4817,2.4816,0,0,2.4542,2.4587,2.46,2.462,2.4657,2.4691,2.474,2.4782,2.4805,2.4837,2.4877,2.4936,2.4921,2.4945,2.4947,2.498,2.5044,2.496,2.4961,2.4974,2.5124,2.5135,2.5148,2.5038,2.504,2.5041,2.5121,0,2.4621,2.4707,2.4712,2.4789,2.483,2.482,2.4862,2.4889,2.4901,2.4937,2.4949,2.4991,2.4968,2.4983,2.5014,2.5029,2.5074,2.5024,2.5075,2.5076,2.5067,2.5162,2.5175,2.5248,2.5131,2.5133,2.5134,0,2.4726,2.476,2.4842,2.4872,2.4889,2.4927,2.4965,2.5,2.503,2.5036,2.5062,2.5059,2.5108,2.5075,2.5142,2.5107,2.5128,2.5139,2.5141,2.5147,2.5109,2.5169,2.5272,2.5283,2.5151,2.5149,2.5148,0,2.4788,2.4854,2.4911,2.4928,2.4965,2.4991,2.5008,2.5036,2.506,2.5093,2.5109,2.5148,2.5169,2.5199,2.5206,2.5181,2.5272,2.524,2.5278,2.5278,2.5298,2.5297,2.5406,2.5312,2.5312,2.5312,2.5311,0,2.4876,2.4926,2.4939,2.4975,2.503,2.5035,2.5089,2.5104,2.5128,2.5165,2.5159,2.5194,2.5201,2.5237,2.5243,2.5297,2.5307,2.5312,2.5313,2.5313,2.5312,2.5327,2.5322,2.5315,2.5314,2.5313,2.5313,0,2.4955,2.4966,2.5027,2.5056,2.5065,2.5104,2.5129,2.5162,2.5173,2.522,2.5231,2.5248,2.529,2.5299,2.535,2.5354,2.5418,2.5414,2.5408,2.5407,2.5445,2.5441,2.5567,2.5584,2.5479,2.548,2.5481,0,2.501,2.5049,2.5081,2.5106,2.5123,2.5163,2.5188,2.5193,2.5219,2.5255,2.5284,2.5325,2.5359,2.5427,2.5443,2.5481,2.5478,2.5519,2.5483,2.5481,2.5478,2.5475,2.5479,2.5526,2.5527,2.5528,2.5529,0,2.5107,2.5111,2.5147,2.5185,2.5215,2.5245,2.5273,2.5294,2.5303,2.5332,2.5375,2.5401,2.5452,2.5493,2.5531,2.5547,2.554,2.554,2.5551,2.5551,2.5545,2.5548,2.5426,2.5537,2.5536,2.5535,2.5535,2.5535,2.5176,2.5209,2.5237,2.5277,2.5299,2.5326,2.5358,2.5373,2.5409,2.545,2.5451,2.5498,2.5525,2.5576,2.5594,2.563,2.5617,2.5633,2.5637,2.5641,2.5644,2.554,2.5637,2.5637,2.5637,2.5636,2.5636,0,2.5272,2.529,2.5327,2.5367,2.5398,2.5388,2.5418,2.5445,2.5486,2.5513,2.5546,2.5594,2.5634,2.5652,2.5691,2.5716,2.5714,2.5726,2.5724,2.5728,2.5654,2.564,2.5728,2.5728,2.5728,2.5728,2.5728,2.5728,2.5326,2.5381,2.5388,2.5453,2.547,2.5516,2.5534,2.5558,2.5579,2.5634,2.5667,2.5678,2.5702,2.5742,2.5777,2.5781,2.5796,2.581,2.5813,2.5743,2.5734,2.5725,2.5712,2.5813,2.5813,2.5884,2.5885,2.5885]}]]